Regional Weather Roundup
Issued by NWS

Home | Current Version | Previous Version | Text Only | Print | Product List | Glossary On
Versions: 1 2 3 4 5 6 7 8 9 10 11 12 13 14 15 16 17 18 19 20 21 22 23 24 25 26 27 28 29 30 31 32 33 34 35 36 37 38 39 40 41 42 43 44 45 46 47 48 49 50
000
ASUS43 KDMX 050607
RWRIA

WEATHER ROUNDUP FOR IOWA
NATIONAL WEATHER SERVICE DES MOINES IA
1200 AM CST THU MAR 05 2015

NOTE: "FAIR" INDICATES FEW OR NO CLOUDS BELOW 12,000 FEET WITH NO
SIGNIFICANT WEATHER AND/OR OBSTRUCTIONS TO VISIBILITY.

* - THESE STATIONS ARE NOT NWS STATIONS...THUS NOT UNDER NWS
QUALITY CONTROL.  THEY ALSO DO NOT REPORT WEATHER SUCH
AS PRECIPITATION OR FOG.

IAZ001>003-012>014-020>022-031>034-043>046-050700-
   NORTHWEST IOWA

CITY           SKY/WX    TMP DP  RH WIND       PRES   REMARKS
CARROLL *      CLEAR      3  -6  66 N8        30.45F WCI -10
CHEROKEE *     CLEAR     -1  -8  71 CALM      30.46R
DENISON *      CLEAR      1  -8  66 CALM      30.44F
LE MARS *      CLEAR      0  -6  78 CALM      30.47S
ORANGE CITY *  CLEAR      1  -6  71 N5        30.43S WCI  -8
SHELDON *      CLEAR     -4 -11  71 NW5       30.42S WCI -15
SIOUX CITY     CLEAR      1  -6  72 W3        30.48S
6HR MIN TEMP:   1; 6HR MAX TEMP:  16;

SPENCER        CLEAR     -5 -11  75 NW7       30.43S WCI -19
6HR MIN TEMP:  -5; 6HR MAX TEMP:   9;

STORM LAKE *   CLEAR     -2  -9  71 NW9       30.43R WCI -18
$$

IAZ055>058-069>071-079>083-090>094-050700-
   SOUTHWEST IOWA

CITY           SKY/WX    TMP DP  RH WIND       PRES   REMARKS
ATLANTIC *     CLEAR      5  -4  66 N6        30.46F WCI  -6
AUDUBON *      CLEAR      3  -6  66 NW3       30.45F
CLARINDA *     CLEAR     10   0  61 N8        30.49S WCI  -1
COUNCIL BLFS * CLEAR      7  -2  66 N8        30.45F WCI  -6
CRESTON *      CLEAR      9  -4  56 N9G16     30.43F WCI  -5
HARLAN  *      CLEAR      3  -4  72 N5        30.50S WCI  -6
LAMONI         CLEAR     12   0  58 N10       30.42S WCI  -1
6HR MIN TEMP:  12; 6HR MAX TEMP:  25;

RED OAK *      CLEAR      7   0  72 N8        30.48S WCI  -6
SHENANDOAH *   CLEAR      9   0  66 N6        30.49S WCI  -1
$$

IAZ047>049-059>061-072>074-084-050700-
   CENTRAL IOWA

CITY           SKY/WX    TMP DP  RH WIND       PRES   REMARKS
AMES           CLEAR      5  -2  72 N13       30.46S WCI -12
6HR MIN TEMP:   5; 6HR MAX TEMP:  18; 6HR PCP: TRACE;

ANKENY *       CLOUDY    10   1  67 N14       30.46S WCI  -5
CHARITON *     PTCLDY    12   3  67 NW8       30.42F WCI   1
DES MOINES     FLURRIES  11   2  67 N7        30.46R WCI   0
6HR MIN TEMP:  11; 6HR MAX TEMP:  22; 6HR PCP: TRACE;

GRINNELL*      PTCLDY     7   0  72 N13       30.44F WCI  -9
KNOXVILLE *    LGT SNOW  12   7  79 N10       30.42F WCI  -1
MARSHALLTOWN   CLEAR      1  -6  72 N7        30.45R WCI -12
6HR MIN TEMP:   1; 6HR MAX TEMP:  13;

PELLA *        LGT SNOW  11   8  86 N8        30.46S WCI   0
PERRY *          N/A      7   0  72 N14       30.46F WCI -10
$$

IAZ004>006-015-016-023>025-035-036-050700-
   NORTH CENTRAL IOWA

CITY           SKY/WX    TMP DP  RH WIND       PRES   REMARKS
ALGONA *       CLEAR      1 N/A N/A N7        30.44R WCI -11
CLARION *      CLEAR      1  -6  71 NW7       30.45R WCI -11
ESTHERVILLE    CLEAR     -3  -9  75 NW9       30.41S WCI -19
6HR MIN TEMP:  -3; 6HR MAX TEMP:   7; 6HR PCP: TRACE;

FORT DODGE *   CLEAR      1  -8  66 CALM      30.46S
MASON CITY     CLEAR     -4 -11  72 NW8       30.43R WCI -19
6HR MIN TEMP:  -4; 6HR MAX TEMP:   9;

FOREST CITY *  CLEAR      0  -9  65 W3        30.42R
IOWA FALLS *     N/A     -2  -8  78 NW9       30.45S WCI -18
$$

IAZ007>011-017>019-026>030-037>042-050>054-066-050700-
   NORTHEAST IOWA

CITY           SKY/WX    TMP DP  RH WIND       PRES   REMARKS
CEDAR RAPIDS   PTCLDY     0  -4  83 NW7       30.43R WCI -13
6HR MIN TEMP:   0; 6HR MAX TEMP:  15;

CHARLES CITY * CLEAR     -2 -11  65 NW8       30.43R WCI -17
CLINTON *      PTCLDY     1  -6  71 NW6       30.44R WCI -10
DECORAH *      CLEAR      0  -9  65 NW6       30.40R WCI -12
DUBUQUE        PTCLDY     3  -5  69 NW13      30.38S WCI -14
6HR MIN TEMP:   2; 6HR MAX TEMP:  10;

MONTICELLO *   CLEAR      3  -6  66 NW12      30.42F WCI -13
OELWEIN *      CLEAR     -2  -9  71 NW9       30.42S WCI -18
WATERLOO       CLEAR      0  -7  72 NW9       30.45R WCI -15
6HR MIN TEMP:   0; 6HR MAX TEMP:  10;

$$

IAZ064-065-067-068-078-050700-
   EAST CENTRAL IOWA

CITY           SKY/WX    TMP DP  RH WIND       PRES   REMARKS
DAVENPORT      PTCLDY     7  -2  66 NW8       30.43R WCI  -6
6HR MIN TEMP:   7; 6HR MAX TEMP:  14;

IOWA CITY      PTCLDY    10   1  67 NW10      30.47R WCI  -4
6HR MIN TEMP:  10; 6HR MAX TEMP:  16;

MT. PLEASANT * CLOUDY    13   7  77 N7        30.43S WCI   3
MUSCATINE *    CLOUDY    14   3  62 N14       30.45S WCI  -1
QUAD CITIES    MOCLDY    12   0  58 NW8       30.43R WCI   0
6HR MIN TEMP:  12; 6HR MAX TEMP:  17;

$$

IAZ062-063-075>077-085>089-095>099-050700-
   SOUTHEAST IOWA

CITY           SKY/WX    TMP DP  RH WIND       PRES   REMARKS
BURLINGTON     CLOUDY    15   5  64 N9        30.42R WCI   3
6HR MIN TEMP:  13; 6HR MAX TEMP:  18;

FAIRFIELD *    CLOUDY    14   3  62 N13       30.43S WCI   0
FORT MADISON * CLOUDY    14   7  73 N12       30.43R WCI   0
KEOKUK *       CLOUDY    18   7  62 N8        30.41R WCI   7
OSKALOOSA *      N/A     11   3  71 N12       30.44S WCI  -4
CENTERVILLE *  CLEAR     14   9  79 N7        30.41F WCI   4
OTTUMWA        CLEAR     11   3  70 N9        30.43R WCI  -2
6HR MIN TEMP:  11; 6HR MAX TEMP:  23; 6HR PCP: TRACE;

WASHINGTON *   CLOUDY    14   7  73 N10       30.43S WCI   1
$$

ABBREVIATIONS USED IN REMARKS
   TC - TEMPERATURES IN CELSIUS
  WCI - WIND CHILL INDEX
   HX - HEAT INDEX
  VSB - VISIBILITY
$$



USA.gov is the U.S. government's official web portal to all federal, state and local government web resources and services.